International Virtual Aviation Organisation

Russian Federation and Kazakhstan MCD

 

Карточка аэропорта UWOO

Внимание!
Информация на этой странице в стадии наполнения.
Если вы не увидели какой-то информации, или заметили неточность - пожалуйста сообщите нам!
Спасибо!
Команда RU-STAFF
Название аэропортаОренбург
Название аэропорта (англ.)Orenburg
Превышение387 ft. (118 m.)
Координаты51°48', 55°27'
Высота перехода700m
Эшелон переходаBy ATC
Коды ответчика2440-2443
Зона ОрВДСамара РПИ (UWWW)
Данные METARUWOO 091430Z 28005MPS 7000 2700E -SHRA OVC009CB 15/14 Q0998 R26/CLRD65 NOSIG RMK QFE738/0984
Проноз погоды (TAF)UWOO 091435Z 0914/1015 31008G14MPS 9999 BKN016CB TX20/1012Z TN12/1001Z TEMPO 0914/1003 32010G17MPS 2100 -SHRA SCT006 BKN011CB BECMG 1003/1004 32010G18MPS TEMPO 1004/1015 34012G19MPS 4000 -SHRA BKN015CB
NOTAMshow/hide NOTAM
AWOS   TABLE

Информация о ВПП

ВПП Длина ВПП (м.) Покрытие Курс ВПП Частота ILS
082501Асфальтобетон79109
262501Асфальтобетон259109.3

Диспетчерские позиции

Позывной Наименование органа УВД Частота
UWOO_TWRОренбург-Старт128.0
UWOO_R_APPОренбург - Круг120.400



Спутниковое изображение